This demonstration page uses our WeatherBlox Daily Observations layout. Learn more.

Left ArrowRight Arrow

Hourly Observations for September 19, 2020

Temp ( °F °C ) Dew Point ( °F °C ) Humidity (%) Winds ( mph kmh ) Pressure ( in mb ) Visibility ( mi km ) Precip ( " mm )
12:51 am 00:51 Clear 73 22.8 45 7.2 37 37 ESE 8 13 29.93 1014 10 16.0934 0 0
1:51 am 01:51 Clear 72 22.2 45 7.2 38 38 ESE 7 11 29.93 1014 10 16.0934 0 0
2:51 am 02:51 Clear 74 23.3 46 7.8 37 37 E 12 19 29.92 1013 10 16.0934 0 0
3:51 am 03:51 Clear 72 22.2 46 7.8 40 40 E 9 15 29.93 1014 10 16.0934 0 0
4:51 am 04:51 Clear 72 22.2 46 7.8 40 40 E 8 13 29.95 1014 10 16.0934 0 0
5:51 am 05:51 Clear 70 21.1 46 7.8 42 42 ESE 8 13 29.96 1015 10 16.0934 0 0
6:51 am 06:51 Sunny 69 20.6 47 8.3 45 45 SE 8 13 29.96 1015 10 16.0934 0 0
7:51 am 07:51 Sunny 75 23.9 48 8.9 39 39 SSE 7 11 29.98 1015 10 16.0934 0 0
8:51 am 08:51 Sunny 81 27.2 48 8.9 32 32 E 13 20 29.98 1015 10 16.0934 0 0
9:51 am 09:51 Sunny 84 28.9 48 8.9 29 29 SE 16 26 29.97 1015 10 16.0934 0 0
10:51 am 10:51 Sunny 85 29.4 49 9.4 29 29 ESE 10 17 29.96 1014 10 16.0934 0 0
11:51 am 11:51 Sunny 88 31.1 48 8.9 25 25 E 9 15 29.91 1013 10 16.0934 0 0
12:51 pm 12:51 Sunny 89 31.7 46 7.8 23 23 SE 12 19 29.88 1012 10 16.0934 0 0
1:51 pm 13:51 Sunny 91 32.8 46 7.8 21 21 undefined N/A 29.84 1011 10 16.0934 0 0
2:51 pm 14:51 Sunny 92 33.3 41 5 17 17 SE 10 17 29.82 1010 10 16.0934 0 0
3:51 pm 15:51 Sunny 92 33.3 43 6.1 18 18 SSE 6 9 29.8 1009 10 16.0934 0 0
4:51 pm 16:51 Sunny 92 33.3 44 6.7 19 19 S 13 20 29.78 1009 10 16.0934 0 0
5:51 pm 17:51 Sunny 90 32.2 44 6.7 20 20 S 7 11 29.79 1009 10 16.0934 0 0
6:51 pm 18:51 Clear 87 30.6 44 6.7 22 22 ESE 10 17 29.8 1009 10 16.0934 0 0
7:51 pm 19:51 Clear 84 28.9 42 5.6 23 23 ESE 8 13 29.82 1010 10 16.0934 0 0
8:51 pm 20:51 Clear 79 26.1 41 5 26 26 E 6 9 29.84 1011 10 16.0934 0 0
9:51 pm 21:51 Clear 77 25 39 3.9 26 26 SE 3 6 29.85 1011 10 16.0934 0 0
10:51 pm 22:51 Clear 74 23.3 36 2.2 25 25 E 6 9 29.87 1012 10 16.0934 0 0
11:51 pm 23:51 Clear 76 24.4 35 1.7 23 23 E 9 15 29.86 1011 10 16.0934 0 0

Powered by AerisWeather